Terminal Aerodrome Forecast
Issued by NWS St Louis, MO

Home | Current Version | Previous Version | Text Only | Print | Product List | Glossary On
Versions: 1 2 3 4 5 6 7 8 9 10 11 12 13 14 15 16 17 18
000
FTUS43 KLSX 270500
TAFCOU
TAF
KCOU 270530Z 2706/2806 32012KT P6SM OVC012
     FM271500 32010KT P6SM OVC025
     FM271900 31007KT P6SM SCT025 BKN250
     FM280000 VRB04KT P6SM SCT100=

USA.gov is the U.S. government's official web portal to all federal, state and local government web resources and services.